Weather History for K8D3 - December, 2014

Change the Weather History Date:

Thursday, December 18, 2014

  Actual Average Record
Temperature  
Mean Temperature 11 °F 16 °F  
Max Temperature 22 °F 25 °F 56 °F (1979)
Min Temperature 0 °F 7 °F -19 °F (1983)
Degree Days  
Heating Degree Days 54 49  
Month to date heating degree days 752 833  
Since 1 July heating degree days 2732 2684  
Cooling Degree Days 0 0  
Month to date cooling degree days 0 0  
Year to date cooling degree days 442 527  
Moisture  
Dew Point 12 °F    
Average Humidity 90    
Maximum Humidity 100    
Minimum Humidity 80    
Precipitation  
Precipitation 0.00 in 0.01 in 0.25 in (2002)
Month to date precipitation 0.22 0.23  
Year to date precipitation 23.32 22.17  
Snow  
Snow 0.00 in - - ()
Month to date snowfall 3.0  
Since 1 July snowfall 11.4  
Snow Depth 3.00 in    
Sea Level Pressure  
Sea Level Pressure 30.32 in    
Wind  
Wind Speed 8 mph (SSE)    
Max Wind Speed 13 mph    
Max Gust Speed 15 mph    
T = Trace of Precipitation, MM = Missing Value Source: NWS Daily Summary

Daily Weather History Graph

Daily Weather History Graph

Search for Another Location

Airport or City:

Trip Planner

Search our weather history database for the weather conditions in past years. The results will help you decide how hot, cold, wet, or windy it might be!

Date:

Astronomy

Dec. 18, 2014 Rise Set
Actual Time 8:03 AM CST 4:45 PM CST
Civil Twilight 7:29 AM CST 5:19 PM CST
Nautical Twilight 6:51 AM CST 5:57 PM CST
Astronomical Twilight 6:15 AM CST 6:33 PM CST
Moon 4:09 AM CST (12/18) 2:34 PM CST (12/18)
Length of Visible Light 9h 50m
Length of Day
8h 41m
Waning Crescent, 13% of the Moon is Illuminated
Dec 18
Waning Crescent
Dec 21
New
Dec 28
First Quarter
Jan 4
Full
Jan 13
Last Quarter

Hourly Weather History & Observations

Time (CST) Temp. Windchill Dew Point Humidity Pressure Visibility Wind Dir Wind Speed Gust Speed Precip Events Conditions
12:56 AM -0.0 °F - -4.0 °F 83% 30.41 in - Calm Calm - N/A   Unknown
1:56 AM 1.0 °F - -2.9 °F 83% 30.40 in - Calm Calm - N/A   Unknown
2:56 AM 1.9 °F -7.6 °F -0.0 °F 91% 30.40 in - South 4.6 mph - N/A   Unknown
3:56 AM 3.9 °F - 1.0 °F 88% 30.37 in - Calm Calm - N/A   Unknown
4:56 AM 6.1 °F -2.8 °F 3.0 °F 87% 30.36 in - SSE 4.6 mph - N/A   Unknown
5:56 AM 7.0 °F -3.3 °F 3.9 °F 87% 30.36 in - SSE 5.8 mph - N/A   Unknown
6:56 AM 10.9 °F -0.8 °F 8.1 °F 88% 30.36 in - South 8.1 mph - N/A   Unknown
7:56 AM 12.9 °F 1.6 °F 10.0 °F 88% 30.35 in - South 8.1 mph - N/A   Unknown
8:56 AM 14.0 °F 2.0 °F 10.9 °F 88% 30.35 in - South 9.2 mph - N/A   Unknown
9:56 AM 15.1 °F 4.2 °F 12.0 °F 88% 30.36 in - South 8.1 mph - N/A   Unknown
10:56 AM 17.1 °F 5.8 °F 12.9 °F 84% 30.35 in - SSE 9.2 mph - N/A   Unknown
12:56 PM 19.0 °F 7.5 °F 15.1 °F 85% 30.31 in - SSE 10.4 mph - N/A   Unknown
2:56 PM 19.9 °F 8.6 °F 16.0 °F 85% 30.29 in - SSE 10.4 mph - N/A   Unknown
3:56 PM 19.0 °F 8.2 °F 17.1 °F 92% 30.29 in - South 9.2 mph - N/A   Unknown
4:56 PM 19.9 °F 8.6 °F 17.1 °F 89% 30.29 in - South 10.4 mph - N/A   Unknown
5:56 PM 19.9 °F 8.6 °F 17.1 °F 89% 30.28 in - SSE 10.4 mph - N/A   Unknown
6:56 PM 19.9 °F 8.6 °F 18.0 °F 92% 30.27 in - South 10.4 mph - N/A   Unknown
7:56 PM 19.9 °F 7.9 °F 18.0 °F 92% 30.27 in - South 11.5 mph - N/A   Unknown
8:56 PM 21.0 °F 10.6 °F 19.0 °F 92% 30.25 in - South 9.2 mph - N/A   Unknown
9:56 PM 21.0 °F 9.3 °F 19.9 °F 96% 30.25 in - South 11.5 mph - N/A   Unknown
10:56 PM 21.9 °F 11.7 °F 21.0 °F 96% 30.25 in - South 9.2 mph - N/A   Unknown
11:56 PM 21.9 °F 10.4 °F 21.0 °F 96% 30.25 in - South 11.5 mph - N/A   Unknown